Regional Weather Roundup
Issued by NWS Little Rock, AR

Home | Current Version | Previous Version | Text Only | Print | Product List | Glossary Off
Versions: 1 2 3 4 5 6 7 8 9 10 11 12 13 14 15 16 17 18 19 20 21 22 23 24 25 26 27 28 29 30 31 32 33 34 35 36 37 38 39 40 41 42 43 44 45 46 47 48 49 50

000
ASUS44 KLZK 171205
RWRLZK

WEATHER ROUNDUP FOR ARKANSAS
NATIONAL WEATHER SERVICE LITTLE ROCK AR
600 AM CST SAT FEB 17 2018

NOTE: "FAIR" INDICATES FEW OR NO CLOUDS BELOW 12,000 FEET WITH NO
SIGNIFICANT WEATHER AND/OR OBSTRUCTIONS TO VISIBILITY.

ARZ001-003-010-029-171300-
NORTHWEST ARKANSAS

CITY           SKY/WX    TMP DP  RH WIND       PRES   REMARKS
FAYETTEVILLE   LGT RAIN  39  39 100 S9        30.04R FOG
6HR MIN TEMP:  39; 6HR MAX TEMP:  39; 6HR PCP:  0.35;

FORT SMITH     RAIN      42  41  96 SE5       30.11R FOG
6HR MIN TEMP:  42; 6HR MAX TEMP:  44; 6HR PCP:  0.46;

HARRISON         N/A    N/A N/A N/A MISG      30.06R
BENTONVILLE    LGT RAIN  38  37  97 S9        30.02F
6HR MIN TEMP:  37; 6HR MAX TEMP:  39; 6HR PCP:  0.56;

ROGERS         RAIN      37  37 100 SE10      30.01S
6HR MIN TEMP:  36; 6HR MAX TEMP:  39; 6HR PCP:  0.59;

SILOAM SPGS    LGT RAIN  39  38  96 S9        30.00F FOG
6HR MIN TEMP:  37; 6HR MAX TEMP:  39; 6HR PCP:  0.57;

HIGHFILL       LGT RAIN  39  39 100 S9        30.00F FOG
6HR MIN TEMP:  37; 6HR MAX TEMP:  39; 6HR PCP:  0.55;

SPRINGDALE     LGT RAIN  39  39 100 SE9       30.02  FOG
$$

ARZ004-005-016-171300-
NORTH CENTRAL ARKANSAS

CITY           SKY/WX    TMP DP  RH WIND       PRES   REMARKS
BATESVILLE     LGT SNOW  37  36  96 NE6       30.08F FOG
6HR MIN TEMP:  37; 6HR MAX TEMP:  41; 6HR PCP:  0.40;

MTN HOME       LGT RAIN  35  35 100 SE7       30.05F FOG     WCI  29
6HR MIN TEMP:  35; 6HR MAX TEMP:  39; 6HR PCP:  0.18;

$$

ARZ040-041-171300-
WEST CENTRAL ARKANSAS

CITY           SKY/WX    TMP DP  RH WIND       PRES   REMARKS
MENA           CLOUDY    45  43  93 CALM      30.10F
MOUNT IDA      RAIN      42  42 100 N3        30.08R FOG
6HR MIN TEMP:  42; 6HR MAX TEMP:  46; 6HR PCP:  0.36;

$$

ARZ009-017-025-026-028-171300-
NORTHEAST ARKANSAS

CITY           SKY/WX    TMP DP  RH WIND       PRES   REMARKS
JONESBORO      RAIN      39  38  96 NE13      30.08F FOG
6HR MIN TEMP:  39; 6HR MAX TEMP:  40; 6HR PCP:  0.13;

NEWPORT        LGT RAIN  38  37  97 N14       30.09F FOG
6HR MIN TEMP:  38; 6HR MAX TEMP:  40; 6HR PCP:  0.11;

WALNUT RIDGE   RAIN      37  36  96 NE9       30.12F FOG
6HR MIN TEMP:  37; 6HR MAX TEMP:  39; 6HR PCP:  0.19;

BLYTHEVILLE    RAIN      40  39  97 E7        30.11R FOG
6HR MIN TEMP:  40; 6HR MAX TEMP:  41; 6HR PCP:  0.07;

$$

ARZ022-023-033-042-044-171300-
CENTRAL ARKANSAS

CITY           SKY/WX    TMP DP  RH WIND       PRES   REMARKS
LITTLE ROCK    LGT RAIN  40  40 100 E6        30.04F FOG
6HR MIN TEMP:  40; 6HR MAX TEMP:  44; 6HR PCP:  0.03;

N LITTLE ROCK    N/A     38  37  97 E6        30.02F
6HR MIN TEMP:  38; 6HR MAX TEMP:  42;

JACKSONVILLE   RAIN      40  40  99 NE7       30.03S FOG
6HR MIN TEMP:  40; 6HR MAX TEMP:  43; 6HR PCP:  0.11;

SEARCY         LGT RAIN  39  39 100 N10       30.08R FOG
6HR MIN TEMP:  39; 6HR MAX TEMP:  42;

HOT SPRINGS    LGT RAIN  42  42 100 CALM      30.05R FOG
6HR MIN TEMP:  41; 6HR MAX TEMP:  47; 6HR PCP:  0.03;

RUSSELLVILLE   HVY RAIN  40  39  97 NE5       30.10R FOG
6HR MIN TEMP:  40; 6HR MAX TEMP:  45; 6HR PCP:  0.23;

CLINTON        LGT RAIN  39  37  93 CALM      30.05F
$$

ARZ036-171300-
EAST ARKANSAS

CITY           SKY/WX    TMP DP  RH WIND       PRES   REMARKS
WEST MEMPHIS   LGT RAIN  42  41  96 E7        30.05F FOG
6HR MIN TEMP:  42; 6HR MAX TEMP:  43; 6HR PCP:  0.04;

$$

ARZ050-053-066-070-073-171300-
SOUTHWEST ARKANSAS

CITY           SKY/WX    TMP DP  RH WIND       PRES   REMARKS
ARKADELPHIA    LGT RAIN  43  42  97 CALM      30.06R FOG
6HR MIN TEMP:  43; 6HR MAX TEMP:  45; 6HR PCP:  0.02;

CAMDEN         CLOUDY    46  43  87 CALM      30.04S FOG
TEXARKANA      CLOUDY    47  46  97 W6        30.06R FOG
6HR MIN TEMP:  47; 6HR MAX TEMP:  49; 6HR PCP:  0.02;

EL DORADO      CLOUDY    47  47 100 CALM      30.04S
6HR MIN TEMP:  47; 6HR MAX TEMP:  48; 6HR PCP: TRACE;

DE QUEEN       LGT RAIN  44  44 100 N3        30.08F FOG
6HR MIN TEMP:  43; 6HR MAX TEMP:  47; 6HR PCP:  0.03;

$$

ARZ056-057-069-171300-
SOUTHEAST ARKANSAS

CITY           SKY/WX    TMP DP  RH WIND       PRES   REMARKS
PINE BLUFF     CLOUDY    42  41  96 E5        30.04F FOG
6HR MIN TEMP:  42; 6HR MAX TEMP:  44; 6HR PCP: TRACE;

STUTTGART      LGT RAIN  41  40  96 NE9       30.05S FOG
6HR MIN TEMP:  41; 6HR MAX TEMP:  44; 6HR PCP:  0.03;

MONTICELLO     CLOUDY    45  42  89 CALM      30.03F
6HR MIN TEMP:  45; 6HR MAX TEMP:  46;


$$





USA.gov is the U.S. government's official web portal to all federal, state and local government web resources and services.